SCP
0 0 0 0 0 0 0 0 0 0 0 0 0 0 0 0 0 0 0 0 0 0 0 0 0 0 0 0 0 0 0 0 0 0 -0 -0 0 0 0 0 0 0 0
0 0 0 0 0 0 0 0 0 0 0 0 0 0 0 0 0 0 0 0 0 0 0 0 0 0 0 0 0 0 0 0 0 0 0 0 0 0 0 0 0 0 0
0 0 0 0 0 0 0 0 0 0 0 0 0 0 0 0 0 0 0 0 0 0 0 0 0 0 0 0 0 0 0 0 0 0 0 0 0 0 0 0 0 0 0
0 0 0 0 0 0 0 0 0 0 0 0 0 0 0 0 0 0 0 0 0 0 0 0 0 0 0 0 0 0 0 0 0 0 0 0 0 0 0 0 0 0 0
0 0 0 0 0 0 0 0 0 0 0 0 0 0 0 0 0 0 0 0 0 0 0 0 0 0 0 0 0 0 0 0 0 0 0 0 0 0 0 0 0 -0 0
0 0 0 0 0 0 0 0 0 0 0 0 0 0 0 0 0 0 0 0 0 0 0 0 0 0 0 0 0 0 0 0 0 0 0 0 0 0 0 0 0 0 -0
0 0 0 0 0 0 0 0 0 0 0 0 0 0 0 0 0 0 0 0 0 0 0 0 0 0 0 0 0 0 0 0 0 0 0 0 0 0 0 0 0 0 0
0 0 0 0 0 0 0 0 0 0 0 0 0 0 0 0 0 0 0 0 0 0 0 0 0 0 0 0 0 0 0 0 0 0 0 0 0 0 0 0 0 0 0
0 0 0 0 0 0 0 0 0 0 0 0 0 0 0 0 0 0 0 0 0 0 0 0 0 0 0 0 0 0 0 0 0 0 0 0 0 0 0 0 0 0 0
0 0 0 0 0 0 0 0 0 0 0 0 -0 -0 0 0 0 0 0 0 0 0 0 -0 -0 -0 -0 -0 -0 0 -0 0 0 -0 0 0 0 0 0 0 0 0 0
0 0 0 0 0 0 0 0 0 0 0 0 0 0 0 0 0 0 0 0 0 0 0 0 -0 -0 -0 -0 -0 -0 -0 0 0 0 -0 0 -0 -0 -0 0 0 0 0
0 0 0 0 0 0 0 0 0 0 0 0 0 0 0 0 0 0 0 0 0 0 0 0 -0 -0 -0 -0 -0 -0 -0 0 0 0 -0 -0 -0 -0 -0 0 0 0 0
0 0 0 0 0 0 0 0 0 0 0 0 0 0 0 0 0 0 0 0 0 0 0 0 -0 -0 -0 -0 -0 -0 0 0 0 0 -0 -0 -0 -0 -0 0 0 0 0
0 0 0 0 0 0 0 0 0 0 0 0 0 0 0 0 0 0 0 0 0 0 0 0 -0 -0 -0 -0 -0 0 0 0 0 0 -0 -0 -0 -0 -0 0 0 0 0
0 0 0 0 0 0 0 0 0 0 0 0 0 0 0 0 0 0 -0 -0 0 0 0 -0 0 -0 -0 -0 0 0 0 0 0 0 0 0 -0 -0 -0 0 0 0 0
0 0 0 0 0 0 0 0 0 0 0 0 0 0 0 0 0 0 0 0 0 0 0 0 0 -0 -0 -0 -0 -0 0 0 0 0 0 0 -0 -0 -0 -0 0 0 0
0 0 0 0 0 0 0 0 0 0 0 0 0 0 0 0 0 0 0 0 0 0 0 -0 0 -0 -0 -0 -0 -0 0 0 0 0 0 0 0 0 0 0 0 0 0
0 0 0 0 0 0 0 0 0 0 0 0 0 0 0 0 0 0 0 0 0 0 0 0 -0 -0 -0 -0 -0 -0 0 0 0 0 0 0 0 0 0 0 0 0 0
0 0 0 0 0 0 0 0 0 0 0 0 0 0 0 0 0 0 0 0 0 0 0 0 0 0 0 -0 -0 -0 0 0 0 0 0 0 0 0 0 0 0 0 0
0 0 0 0 0 0 0 0 0 0 0 0 0 0 0 0 0 0 0 0 0 0 0 0 0 0 0 -0 -0 -0 0 0 0 0 0 0 0 0 0 0 -0 -0 0
0 0 0 0 0 0 0 0 0 0 0 0 0 0 0 0 0 0 0 0 0 0 0 0 0 0 0 0 -0 -0 0 0 0 0 0 0 0 0 0 0 0 0 0
0 0 0 0 0 0 0 0 0 0 0 0 0 0 0 0 0 0 0 0 0 0 0 0 0 0 0 0 0 -0 -0 -0 0 0 0 0 0 0 0 0 0 -0 0
0 0 0 0 0 0 0 0 0 0 0 0 0 0 0 0 0 0 0 0 0 0 0 0 0 0 0 0 0 0 0 0 0 0 0 -0 -0 0 0 0 -0 0 0
0 0 0 0 0 0 0 0 0 0 0 0 0 0 0 0 0 0 0 0 0 0 0 0 0 0 0 0 0 0 0 0 0 -0 -0 -0 -0 -0 0 0 0 0 0
0 0 0 0 0 0 0 0 0 0 0 0 0 0 0 0 0 0 0 0 0 0 0 0 0 0 0 0 0 0 0 0 0 -0 -0 -0 -0 -0 0 0 0 0 0
0 0 0 0 0 0 0 0 0 0 0 0 0 0 0 0 0 0 0 0 0 0 0 0 0 0 0 0 0 0 0 0 0 0 -0 -0 -0 -0 -0 -0 0 -0 -0
Wind_Speed_500mb
11 6 6 6 5 4 3 5 9 13 15 26 29 31 29 25 20 17 22 26 30 31 31 37 40 40 42 45 50 53 57 60 68 68 72 71 63 61 60 46 47 56 52
23 13 8 8 9 9 8 8 9 11 11 16 20 19 15 13 10 11 15 15 18 22 26 31 33 37 38 40 44 46 50 47 48 46 53 52 70 67 40 34 30 34 28
35 22 11 8 12 14 13 14 15 14 13 10 8 9 7 6 5 0 6 9 13 19 23 26 28 29 31 31 30 31 34 37 35 27 13 16 18 63 71 71 62 62 49
37 27 16 11 10 16 16 17 18 20 20 16 11 10 9 10 12 11 11 15 18 22 25 27 27 26 26 26 27 27 28 31 36 23 13 21 25 24 50 70 65 62 66
42 34 19 14 16 17 19 20 20 22 24 21 19 16 17 21 19 16 16 21 23 26 28 31 31 29 28 26 25 25 26 27 31 34 36 32 33 30 38 61 73 80 66
44 36 28 19 11 11 17 18 19 21 19 20 21 20 21 22 20 23 26 29 28 29 31 32 35 37 37 38 38 37 37 36 33 34 35 35 28 35 37 57 75 81 92
50 48 36 21 13 11 12 14 19 22 18 17 21 23 20 20 22 26 28 26 27 28 28 29 31 31 32 31 28 31 35 42 44 43 44 42 36 34 38 45 62 70 87
57 48 35 27 13 5 6 11 13 18 17 16 20 24 21 18 20 26 29 30 30 30 31 34 37 36 35 38 33 32 41 48 49 47 44 47 45 45 45 47 53 76 69
59 48 37 25 15 9 11 8 6 11 13 15 18 26 22 18 22 27 26 27 29 29 29 36 43 45 47 45 38 33 43 47 52 53 55 53 51 50 51 51 50 50 64
50 41 31 24 18 15 15 11 10 7 8 10 14 22 20 23 26 27 27 27 29 23 24 33 39 47 51 50 49 39 43 49 54 59 60 60 57 58 56 54 54 52 62
51 42 30 21 25 19 18 13 10 5 6 8 11 20 21 24 25 31 37 30 28 21 20 21 34 45 46 47 41 50 48 53 54 57 60 63 59 60 58 61 62 62 60
43 44 42 31 21 16 14 13 6 3 4 6 9 16 15 22 27 34 39 33 26 18 18 24 36 45 50 48 50 50 54 59 61 59 64 65 63 60 58 60 68 74 76
47 41 30 28 24 13 9 8 4 4 2 1 6 11 14 20 25 32 36 39 27 21 20 27 37 48 50 52 54 57 59 60 62 60 63 64 66 65 63 69 73 80 86
47 38 29 21 19 16 11 7 3 5 1 2 6 10 15 18 23 29 36 41 30 23 25 34 41 46 48 51 53 57 59 59 59 59 57 61 62 66 66 70 72 78 90
48 37 29 22 17 17 11 6 2 3 3 3 5 11 16 19 24 29 35 40 31 26 33 43 48 48 49 51 56 59 60 61 64 63 59 58 56 54 61 70 77 80 94
37 29 22 20 16 9 5 8 2 4 1 5 6 11 14 19 23 26 28 30 32 32 37 51 54 54 50 52 55 55 59 58 62 68 68 62 62 64 70 75 80 73 86
35 29 27 21 16 9 5 7 3 2 5 10 10 12 14 17 21 22 24 23 30 36 41 51 56 56 58 55 61 59 57 59 61 68 70 70 63 67 76 85 90 77 84
37 31 26 20 14 7 3 6 3 6 11 13 10 12 17 22 13 20 21 25 32 38 44 47 52 54 60 62 68 65 59 59 60 67 69 67 66 67 72 86 92 83 90
28 25 20 18 13 7 7 6 7 12 12 8 11 13 25 21 17 19 21 27 33 39 44 48 52 54 57 64 69 68 63 62 64 67 73 70 68 70 71 79 86 86 86
20 16 14 12 8 8 12 7 8 10 5 8 15 19 28 21 17 21 22 27 33 37 41 45 48 49 54 56 64 65 59 65 69 71 81 78 71 69 67 66 78 86 89
15 15 14 12 12 10 13 10 9 10 9 8 12 17 20 25 19 23 22 26 35 35 38 42 41 47 49 51 58 61 56 61 70 70 81 88 77 68 58 57 64 72 77
16 15 15 10 4 7 14 13 12 16 15 18 19 17 19 22 25 29 25 25 35 36 39 41 39 44 46 46 55 57 51 53 64 64 76 85 77 62 52 53 58 64 69
21 17 18 14 15 14 14 14 13 18 25 26 30 25 23 22 26 28 28 26 36 40 42 40 36 46 44 42 50 53 50 50 58 58 70 79 79 61 50 49 51 58 68
22 17 18 24 24 25 27 24 24 29 31 32 32 30 30 37 38 36 29 28 36 43 39 36 41 46 45 39 49 47 49 48 55 56 67 76 80 65 52 49 48 53 59
24 28 29 29 26 23 28 29 35 38 37 39 40 40 37 35 35 29 30 33 34 38 35 39 46 44 43 39 48 41 48 52 53 55 63 75 81 80 68 59 50 50 55
20 23 29 26 27 30 33 36 37 41 46 52 48 50 47 39 35 32 31 32 30 30 35 37 38 32 40 43 40 38 41 46 47 50 57 67 75 79 72 65 59 48 51
Wind_Direction_500mb
123 81 51 36 35 40 108 147 162 163 178 192 204 210 219 230 249 270 275 286 285 280 281 285 291 294 291 292 290 287 286 285 286 290 280 275 278 274 274 283 281 284 281
142 119 81 42 35 39 52 81 106 130 155 172 194 210 213 229 262 285 282 284 289 291 292 290 296 302 302 299 296 295 293 299 301 313 312 307 289 275 273 272 281 304 330
149 144 132 64 43 48 52 70 79 90 101 116 156 179 180 159 162 244 295 321 328 326 325 325 323 321 320 320 319 314 312 315 315 337 346 327 301 295 288 276 276 281 286
148 149 148 106 62 54 54 62 69 75 78 86 107 120 112 86 59 38 9 354 353 352 350 348 346 345 345 341 343 338 330 323 325 327 251 271 285 311 310 293 287 279 276
155 152 141 114 85 61 53 57 58 62 59 61 64 69 69 63 62 58 46 40 36 31 29 24 20 17 16 12 3 359 359 358 346 343 331 313 294 282 284 300 293 286 275
152 144 138 129 101 65 49 52 54 56 54 51 47 42 47 51 50 46 38 34 33 30 27 22 17 15 15 18 22 23 24 25 13 357 351 343 337 310 296 292 294 295 291
149 146 144 142 121 92 44 53 48 56 52 48 45 35 33 30 32 28 24 20 19 21 19 16 14 10 6 5 1 10 15 12 10 5 356 349 337 322 312 301 301 299 296
151 149 152 147 138 120 70 67 51 52 40 31 30 24 27 22 23 24 18 16 16 16 14 15 10 12 6 359 360 10 9 5 0 356 353 350 344 334 326 317 307 306 302
146 147 147 142 134 121 102 102 69 60 37 18 13 16 26 28 27 19 17 22 20 17 12 12 9 9 3 1 358 0 2 360 358 354 354 349 343 336 331 323 312 301 303
146 142 139 133 144 137 121 129 135 93 72 44 14 15 32 32 27 17 12 17 11 12 8 10 5 5 2 359 358 355 355 354 355 354 351 347 341 337 335 329 317 297 291
152 146 138 136 140 142 138 134 135 103 77 64 29 13 12 19 24 16 9 6 0 7 8 9 1 357 358 0 354 348 354 355 350 350 348 348 342 341 336 333 327 316 303
146 140 146 149 139 139 134 142 154 284 43 63 25 7 6 12 12 11 8 2 1 5 3 2 359 356 356 357 354 353 357 353 350 345 344 346 344 339 336 332 327 321 314
149 147 159 162 166 157 151 158 170 320 346 62 354 359 3 4 4 4 5 3 10 9 4 2 3 354 355 353 352 353 352 350 348 343 340 342 343 336 332 325 321 318 315
147 147 149 158 166 167 173 184 251 329 56 18 358 352 1 357 351 1 3 7 10 9 7 6 3 352 352 350 349 347 348 347 344 341 335 341 343 339 326 321 316 311 310
142 147 157 156 169 183 191 197 178 348 35 23 6 358 346 340 341 357 7 11 13 23 21 14 10 359 355 354 349 345 345 345 343 342 338 337 340 330 329 325 319 311 310
145 152 157 163 164 175 204 157 104 359 9 320 336 334 330 328 334 352 2 9 21 24 20 18 14 5 360 355 351 346 346 344 342 342 341 334 338 341 337 332 323 310 315
160 175 185 181 173 164 142 139 113 322 303 310 304 311 325 329 323 357 1 9 22 20 18 16 12 7 4 359 355 352 347 344 345 345 341 338 337 336 338 333 327 318 323
160 168 173 176 181 194 192 159 224 281 293 302 319 336 348 351 339 356 11 9 11 10 9 9 5 1 3 360 358 353 349 345 348 348 344 339 339 336 337 334 333 328 328
163 162 170 178 190 244 197 183 258 295 302 344 354 350 358 354 353 2 5 1 360 0 1 1 357 352 355 358 357 352 349 347 348 349 350 344 339 337 338 337 338 340 336
165 174 184 189 221 279 171 224 276 333 330 359 355 353 4 350 3 9 5 356 351 350 353 352 352 348 345 350 354 353 348 346 346 349 352 349 342 338 336 338 345 342 347
164 174 193 219 258 237 185 230 287 317 344 313 322 328 336 353 352 349 344 336 346 340 336 333 344 344 337 340 350 355 348 344 344 347 350 350 346 337 335 340 348 347 355
190 183 209 240 188 172 200 228 274 302 308 326 299 299 310 324 332 321 319 321 339 328 325 322 330 343 338 334 344 349 349 343 343 344 347 350 347 340 340 344 350 356 0
185 204 223 237 245 248 251 244 295 298 306 306 313 305 303 291 305 309 306 304 337 328 324 324 324 342 340 334 340 343 340 340 342 344 346 349 352 348 347 353 352 5 6
220 214 223 233 244 255 255 270 295 300 296 297 312 304 291 288 293 292 307 313 313 324 317 318 319 338 339 335 343 342 341 343 344 345 346 352 357 359 355 357 1 5 13
237 235 245 253 258 267 280 272 277 284 297 302 301 299 293 303 298 292 306 308 318 317 324 323 328 329 337 338 346 341 342 343 345 346 347 354 359 1 0 1 5 6 13
255 254 250 261 276 274 273 273 280 288 288 293 295 298 294 290 295 291 299 314 314 321 324 322 321 322 333 340 347 340 339 341 344 348 352 358 0 2 1 1 3 10 12
Wind_Speed_850mb
11 6 6 6 5 4 3 5 9 13 15 26 29 31 29 25 20 17 22 26 30 31 31 37 40 40 42 45 50 53 57 60 68 68 72 71 63 61 60 46 47 56 52
23 13 8 8 9 9 8 8 9 11 11 16 20 19 15 13 10 11 15 15 18 22 26 31 33 37 38 40 44 46 50 47 48 46 53 52 70 67 40 34 30 34 28
35 22 11 8 12 14 13 14 15 14 13 10 8 9 7 6 5 0 6 9 13 19 23 26 28 29 31 31 30 31 34 37 35 27 13 16 18 63 71 71 62 62 49
37 27 16 11 10 16 16 17 18 20 20 16 11 10 9 10 12 11 11 15 18 22 25 27 27 26 26 26 27 27 28 31 36 23 13 21 25 24 50 70 65 62 66
42 34 19 14 16 17 19 20 20 22 24 21 19 16 17 21 19 16 16 21 23 26 28 31 31 29 28 26 25 25 26 27 31 34 36 32 33 30 38 61 73 80 66
44 36 28 19 11 11 17 18 19 21 19 20 21 20 21 22 20 23 26 29 28 29 31 32 35 37 37 38 38 37 37 36 33 34 35 35 28 35 37 57 75 81 92
50 48 36 21 13 11 12 14 19 22 18 17 21 23 20 20 22 26 28 26 27 28 28 29 31 31 32 31 28 31 35 42 44 43 44 42 36 34 38 45 62 70 87
57 48 35 27 13 5 6 11 13 18 17 16 20 24 21 18 20 26 29 30 30 30 31 34 37 36 35 38 33 32 41 48 49 47 44 47 45 45 45 47 53 76 69
59 48 37 25 15 9 11 8 6 11 13 15 18 26 22 18 22 27 26 27 29 29 29 36 43 45 47 45 38 33 43 47 52 53 55 53 51 50 51 51 50 50 64
50 41 31 24 18 15 15 11 10 7 8 10 14 22 20 23 26 27 27 27 29 23 24 33 39 47 51 50 49 39 43 49 54 59 60 60 57 58 56 54 54 52 62
51 42 30 21 25 19 18 13 10 5 6 8 11 20 21 24 25 31 37 30 28 21 20 21 34 45 46 47 41 50 48 53 54 57 60 63 59 60 58 61 62 62 60
43 44 42 31 21 16 14 13 6 3 4 6 9 16 15 22 27 34 39 33 26 18 18 24 36 45 50 48 50 50 54 59 61 59 64 65 63 60 58 60 68 74 76
47 41 30 28 24 13 9 8 4 4 2 1 6 11 14 20 25 32 36 39 27 21 20 27 37 48 50 52 54 57 59 60 62 60 63 64 66 65 63 69 73 80 86
47 38 29 21 19 16 11 7 3 5 1 2 6 10 15 18 23 29 36 41 30 23 25 34 41 46 48 51 53 57 59 59 59 59 57 61 62 66 66 70 72 78 90
48 37 29 22 17 17 11 6 2 3 3 3 5 11 16 19 24 29 35 40 31 26 33 43 48 48 49 51 56 59 60 61 64 63 59 58 56 54 61 70 77 80 94
37 29 22 20 16 9 5 8 2 4 1 5 6 11 14 19 23 26 28 30 32 32 37 51 54 54 50 52 55 55 59 58 62 68 68 62 62 64 70 75 80 73 86
35 29 27 21 16 9 5 7 3 2 5 10 10 12 14 17 21 22 24 23 30 36 41 51 56 56 58 55 61 59 57 59 61 68 70 70 63 67 76 85 90 77 84
37 31 26 20 14 7 3 6 3 6 11 13 10 12 17 22 13 20 21 25 32 38 44 47 52 54 60 62 68 65 59 59 60 67 69 67 66 67 72 86 92 83 90
28 25 20 18 13 7 7 6 7 12 12 8 11 13 25 21 17 19 21 27 33 39 44 48 52 54 57 64 69 68 63 62 64 67 73 70 68 70 71 79 86 86 86
20 16 14 12 8 8 12 7 8 10 5 8 15 19 28 21 17 21 22 27 33 37 41 45 48 49 54 56 64 65 59 65 69 71 81 78 71 69 67 66 78 86 89
15 15 14 12 12 10 13 10 9 10 9 8 12 17 20 25 19 23 22 26 35 35 38 42 41 47 49 51 58 61 56 61 70 70 81 88 77 68 58 57 64 72 77
16 15 15 10 4 7 14 13 12 16 15 18 19 17 19 22 25 29 25 25 35 36 39 41 39 44 46 46 55 57 51 53 64 64 76 85 77 62 52 53 58 64 69
21 17 18 14 15 14 14 14 13 18 25 26 30 25 23 22 26 28 28 26 36 40 42 40 36 46 44 42 50 53 50 50 58 58 70 79 79 61 50 49 51 58 68
22 17 18 24 24 25 27 24 24 29 31 32 32 30 30 37 38 36 29 28 36 43 39 36 41 46 45 39 49 47 49 48 55 56 67 76 80 65 52 49 48 53 59
24 28 29 29 26 23 28 29 35 38 37 39 40 40 37 35 35 29 30 33 34 38 35 39 46 44 43 39 48 41 48 52 53 55 63 75 81 80 68 59 50 50 55
20 23 29 26 27 30 33 36 37 41 46 52 48 50 47 39 35 32 31 32 30 30 35 37 38 32 40 43 40 38 41 46 47 50 57 67 75 79 72 65 59 48 51
Wind_Direction_850mb
123 81 51 36 35 40 108 147 162 163 178 192 204 210 219 230 249 270 275 286 285 280 281 285 291 294 291 292 290 287 286 285 286 290 280 275 278 274 274 283 281 284 281
142 119 81 42 35 39 52 81 106 130 155 172 194 210 213 229 262 285 282 284 289 291 292 290 296 302 302 299 296 295 293 299 301 313 312 307 289 275 273 272 281 304 330
149 144 132 64 43 48 52 70 79 90 101 116 156 179 180 159 162 244 295 321 328 326 325 325 323 321 320 320 319 314 312 315 315 337 346 327 301 295 288 276 276 281 286
148 149 148 106 62 54 54 62 69 75 78 86 107 120 112 86 59 38 9 354 353 352 350 348 346 345 345 341 343 338 330 323 325 327 251 271 285 311 310 293 287 279 276
155 152 141 114 85 61 53 57 58 62 59 61 64 69 69 63 62 58 46 40 36 31 29 24 20 17 16 12 3 359 359 358 346 343 331 313 294 282 284 300 293 286 275
152 144 138 129 101 65 49 52 54 56 54 51 47 42 47 51 50 46 38 34 33 30 27 22 17 15 15 18 22 23 24 25 13 357 351 343 337 310 296 292 294 295 291
149 146 144 142 121 92 44 53 48 56 52 48 45 35 33 30 32 28 24 20 19 21 19 16 14 10 6 5 1 10 15 12 10 5 356 349 337 322 312 301 301 299 296
151 149 152 147 138 120 70 67 51 52 40 31 30 24 27 22 23 24 18 16 16 16 14 15 10 12 6 359 360 10 9 5 0 356 353 350 344 334 326 317 307 306 302
146 147 147 142 134 121 102 102 69 60 37 18 13 16 26 28 27 19 17 22 20 17 12 12 9 9 3 1 358 0 2 360 358 354 354 349 343 336 331 323 312 301 303
146 142 139 133 144 137 121 129 135 93 72 44 14 15 32 32 27 17 12 17 11 12 8 10 5 5 2 359 358 355 355 354 355 354 351 347 341 337 335 329 317 297 291
152 146 138 136 140 142 138 134 135 103 77 64 29 13 12 19 24 16 9 6 0 7 8 9 1 357 358 0 354 348 354 355 350 350 348 348 342 341 336 333 327 316 303
146 140 146 149 139 139 134 142 154 284 43 63 25 7 6 12 12 11 8 2 1 5 3 2 359 356 356 357 354 353 357 353 350 345 344 346 344 339 336 332 327 321 314
149 147 159 162 166 157 151 158 170 320 346 62 354 359 3 4 4 4 5 3 10 9 4 2 3 354 355 353 352 353 352 350 348 343 340 342 343 336 332 325 321 318 315
147 147 149 158 166 167 173 184 251 329 56 18 358 352 1 357 351 1 3 7 10 9 7 6 3 352 352 350 349 347 348 347 344 341 335 341 343 339 326 321 316 311 310
142 147 157 156 169 183 191 197 178 348 35 23 6 358 346 340 341 357 7 11 13 23 21 14 10 359 355 354 349 345 345 345 343 342 338 337 340 330 329 325 319 311 310
145 152 157 163 164 175 204 157 104 359 9 320 336 334 330 328 334 352 2 9 21 24 20 18 14 5 360 355 351 346 346 344 342 342 341 334 338 341 337 332 323 310 315
160 175 185 181 173 164 142 139 113 322 303 310 304 311 325 329 323 357 1 9 22 20 18 16 12 7 4 359 355 352 347 344 345 345 341 338 337 336 338 333 327 318 323
160 168 173 176 181 194 192 159 224 281 293 302 319 336 348 351 339 356 11 9 11 10 9 9 5 1 3 360 358 353 349 345 348 348 344 339 339 336 337 334 333 328 328
163 162 170 178 190 244 197 183 258 295 302 344 354 350 358 354 353 2 5 1 360 0 1 1 357 352 355 358 357 352 349 347 348 349 350 344 339 337 338 337 338 340 336
165 174 184 189 221 279 171 224 276 333 330 359 355 353 4 350 3 9 5 356 351 350 353 352 352 348 345 350 354 353 348 346 346 349 352 349 342 338 336 338 345 342 347
164 174 193 219 258 237 185 230 287 317 344 313 322 328 336 353 352 349 344 336 346 340 336 333 344 344 337 340 350 355 348 344 344 347 350 350 346 337 335 340 348 347 355
190 183 209 240 188 172 200 228 274 302 308 326 299 299 310 324 332 321 319 321 339 328 325 322 330 343 338 334 344 349 349 343 343 344 347 350 347 340 340 344 350 356 0
185 204 223 237 245 248 251 244 295 298 306 306 313 305 303 291 305 309 306 304 337 328 324 324 324 342 340 334 340 343 340 340 342 344 346 349 352 348 347 353 352 5 6
220 214 223 233 244 255 255 270 295 300 296 297 312 304 291 288 293 292 307 313 313 324 317 318 319 338 339 335 343 342 341 343 344 345 346 352 357 359 355 357 1 5 13
237 235 245 253 258 267 280 272 277 284 297 302 301 299 293 303 298 292 306 308 318 317 324 323 328 329 337 338 346 341 342 343 345 346 347 354 359 1 0 1 5 6 13
255 254 250 261 276 274 273 273 280 288 288 293 295 298 294 290 295 291 299 314 314 321 324 322 321 322 333 340 347 340 339 341 344 348 352 358 0 2 1 1 3 10 12